Location: Marcé
(47.5801°N, 0.3280°W)
Time: 16:29:00
(UTC+02:00)

ACS3 Solar Sail - Pass Details

Date: 24 June 2024
Orbit: 992 x 1023 km, 97.4° (Epoch: 11 July)

Event Time Altitude Azimuth Distance (km) Brightness Sun altitude
Exits shadow 22:39:54 - 143° (SE) 3,109 6.8 -5.5°
Reaches altitude 10° 22:40:51 10° 140° (SE) 2,760 6.5 -5.7°
Maximum altitude 22:46:45 48° 69° (ENE) 1,284 5.3 -6.4°
Drops below altitude 10° 22:52:40 10° 357° (N) 2,768 8.0 -7.0°
Sets 22:55:14 0° 352° (N) 3,721 8.9 -7.3°
